Date String (YYYY-MM-DD hh:mm:ss) UTC,Instrument flags,Ambient pressure (hPa),Sample flow (lpm),Bypass flow (lpm),Sample temperature (°C),Ambient temperature (°C),ASC tube jacket temperature (°C),LED temperature (°C),Box temperature (°C),Sample RH (%),Span deviation,Mass concentration (μg/m³),Mass concentration (μg/m³),Mass concentration (μg/m³)
DateTimeUTC,F1_M11,P_M11,Q1_M11,Q2_M11,T1_M11,T2_M11,T3_M11,T4_M11,T5_M11,U1_M11,ZSPAN_M11,X0_M11,X2_M11,X1_M11
2022-04-08 13:00:00,,0832.5,5.00,0.00,22.1,22.2,00.0,31.1,24.0,07.7,0000.0,0008.73,0002.79,0001.52
2022-04-08 13:01:00,,0832.5,5.00,0.00,22.3,23.1,00.0,31.2,24.3,07.7,0000.0,0008.31,0002.79,0001.50
2022-04-08 13:02:00,,0832.5,5.00,0.00,22.5,23.4,00.0,31.2,24.5,07.6,0000.0,0008.25,0002.83,0001.51
2022-04-08 13:03:00,,0832.5,4.99,0.00,22.5,23.2,00.0,31.3,24.5,07.7,0000.0,0008.27,0002.81,0001.51
2022-04-08 13:04:00,,0832.5,5.00,0.00,22.5,22.8,00.0,31.3,24.4,07.7,0000.0,0008.54,0002.74,0001.48
2022-04-08 13:05:00,,0832.5,4.99,0.00,22.5,22.6,00.0,31.3,24.3,07.7,0000.0,0008.70,0002.75,0001.47
2022-04-08 13:06:00,,0832.5,5.01,0.00,22.5,22.3,00.0,31.3,24.3,07.7,0000.0,0008.43,0002.81,0001.47
2022-04-08 13:07:00,,0832.5,4.99,0.00,22.5,22.1,00.0,31.3,24.3,07.6,0000.0,0007.86,0002.86,0001.49
2022-04-08 13:08:00,,0832.5,5.01,0.00,22.4,22.0,00.0,31.3,24.2,07.5,0000.0,0007.81,0002.91,0001.49
2022-04-08 13:09:00,,0832.5,4.99,0.00,22.4,21.9,00.0,31.3,24.2,07.5,0000.0,0007.65,0002.90,0001.48
2022-04-08 13:10:00,,0832.5,5.01,0.00,22.4,21.8,00.0,31.3,24.1,07.5,0000.0,0007.19,0002.90,0001.48
2022-04-08 13:11:00,,0832.5,5.01,0.00,22.4,21.7,00.0,31.3,24.1,07.6,0000.0,0007.37,0002.82,0001.49
2022-04-08 13:12:00,,0832.5,5.00,0.00,22.4,21.6,00.0,31.3,24.1,07.6,0000.0,0007.84,0002.76,0001.49
2022-04-08 13:13:00,,0832.5,4.99,0.00,22.4,21.6,00.0,31.3,24.1,07.6,0000.0,0008.16,0002.70,0001.49
2022-04-08 13:14:00,,0832.5,5.00,0.00,22.4,21.6,00.0,31.3,24.1,07.8,0000.0,0008.27,0002.74,0001.49
2022-04-08 13:15:00,,0832.5,5.01,0.00,22.3,21.5,00.0,31.3,24.1,07.7,0000.0,0008.13,0002.82,0001.50
2022-04-08 13:16:00,,0832.5,4.99,0.00,22.3,21.5,00.0,31.3,24.0,07.7,0000.0,0008.10,0002.85,0001.51
2022-04-08 13:17:00,,0832.5,5.01,0.00,22.3,21.5,00.0,31.3,24.0,07.7,0000.0,0008.27,0002.85,0001.50
2022-04-08 13:18:00,,0832.5,5.01,0.00,22.3,21.5,00.0,31.3,24.0,07.6,0000.0,0008.46,0002.83,0001.49
2022-04-08 13:19:00,,0832.5,5.00,0.00,22.3,21.4,00.0,31.3,24.0,07.6,0000.0,0008.47,0002.75,0001.47
2022-04-08 13:20:00,,0832.5,4.99,0.00,22.3,21.4,00.0,31.3,24.0,07.6,0000.0,0008.60,0002.79,0001.48
2022-04-08 13:21:00,,0832.5,5.00,0.00,22.3,21.4,00.0,31.3,24.0,07.7,0000.0,0009.03,0002.81,0001.48
2022-04-08 13:22:00,,0832.5,5.00,0.00,22.3,21.4,00.0,31.3,24.0,07.7,0000.0,0009.51,0002.84,0001.48
2022-04-08 13:23:00,,0832.5,4.98,0.00,22.3,21.4,00.0,31.3,24.0,07.6,0000.0,0009.49,0002.88,0001.49
2022-04-08 13:24:00,,0832.5,5.00,0.00,22.3,21.4,00.0,31.3,24.0,07.5,0000.0,0009.16,0002.92,0001.48
2022-04-08 13:25:00,,0832.5,5.00,0.00,22.3,21.4,00.0,31.3,24.0,07.5,0000.0,0009.10,0002.83,0001.47
2022-04-08 13:26:00,,0832.4,5.00,0.00,22.3,21.4,00.0,31.3,24.0,07.5,0000.0,0008.86,0002.76,0001.47
2022-04-08 13:27:00,,0832.4,5.00,0.00,22.3,21.4,00.0,31.3,24.0,07.6,0000.0,0008.80,0002.70,0001.45
2022-04-08 13:28:00,,0832.5,5.01,0.00,22.3,21.4,00.0,31.2,24.0,07.6,0000.0,0008.50,0002.64,0001.44
2022-04-08 13:29:00,,0832.5,4.98,0.00,22.3,21.4,00.0,31.2,24.0,07.7,0000.0,0008.50,0002.57,0001.43
2022-04-08 13:30:00,,0832.5,5.01,0.00,22.3,21.4,00.0,31.2,24.0,08.3,0000.0,0008.80,0002.58,0001.44
2022-04-08 13:31:00,,0832.4,4.99,0.00,22.3,21.4,00.0,31.2,24.0,08.2,0000.0,0008.94,0002.58,0001.45
2022-04-08 13:32:00,,0832.4,5.00,0.00,22.3,21.4,00.0,31.2,24.0,08.2,0000.0,0009.43,0002.58,0001.44
2022-04-08 13:33:00,,0832.4,5.01,0.00,22.3,21.4,00.0,31.2,24.0,08.3,0000.0,0008.98,0002.55,0001.45
2022-04-08 13:34:00,,0832.5,4.99,0.00,22.3,22.0,00.0,31.3,24.2,07.8,0000.0,0008.92,0002.54,0001.45
2022-04-08 13:35:00,,0832.4,5.01,0.00,22.5,23.2,00.0,31.3,24.5,07.5,0000.0,0009.32,0002.49,0001.44
2022-04-08 13:36:00,,0832.4,5.00,0.00,22.6,23.6,00.0,31.4,24.6,07.4,0000.0,0009.20,0002.50,0001.45
2022-04-08 13:37:00,,0832.4,4.99,0.00,22.6,23.3,00.0,31.4,24.6,07.8,0000.0,0009.24,0002.50,0001.44
2022-04-08 13:38:00,,0832.4,5.00,0.00,22.6,23.0,00.0,31.4,24.6,07.7,0000.0,0009.14,0002.49,0001.44
2022-04-08 13:39:00,,0832.3,4.99,0.00,22.6,22.8,00.0,31.4,24.5,07.6,0000.0,0009.14,0002.49,0001.45
2022-04-08 13:40:00,,0832.4,5.02,0.00,22.6,22.5,00.0,31.4,24.5,07.7,0000.0,0009.18,0002.57,0001.46
2022-04-08 13:41:00,,0832.3,4.99,0.00,22.6,22.3,00.0,31.4,24.4,07.7,0000.0,0009.11,0002.56,0001.46
2022-04-08 13:42:00,,0832.3,5.01,0.00,22.6,22.2,00.0,31.5,24.4,07.8,0000.0,0008.85,0002.51,0001.44
2022-04-08 13:43:00,,0832.4,4.99,0.00,22.6,22.1,00.0,31.5,24.4,08.0,0000.0,0008.11,0002.50,0001.43
2022-04-08 13:44:00,,0832.4,5.01,0.00,22.6,22.0,00.0,31.5,24.4,08.0,0000.0,0007.75,0002.49,0001.42
2022-04-08 13:45:00,,0832.4,4.98,0.00,22.6,22.0,00.0,31.5,24.4,08.1,0000.0,0007.26,0002.50,0001.42
2022-04-08 13:46:00,,0832.4,5.00,0.00,22.6,21.9,00.0,31.5,24.3,07.9,0000.0,0006.53,0002.49,0001.42
2022-04-08 13:47:00,,0832.4,5.01,0.00,22.6,21.8,00.0,31.5,24.3,07.7,0000.0,0006.31,0002.49,0001.41
2022-04-08 13:48:00,,0832.4,4.99,0.00,22.6,21.8,00.0,31.5,24.3,07.7,0000.0,0006.17,0002.47,0001.40
2022-04-08 13:49:00,,0832.4,5.01,0.00,22.6,21.8,00.0,31.5,24.3,07.8,0000.0,0006.21,0002.43,0001.40
2022-04-08 13:50:00,,0832.3,5.00,0.00,22.6,21.8,00.0,31.5,24.3,07.7,0000.0,0006.58,0002.38,0001.40
2022-04-08 13:51:00,,0832.3,4.99,0.00,22.6,21.8,00.0,31.5,24.3,07.5,0000.0,0005.98,0002.32,0001.39
2022-04-08 13:52:00,,0832.4,4.99,0.00,22.6,21.8,00.0,31.5,24.3,07.6,0000.0,0005.37,0002.33,0001.38
2022-04-08 13:53:00,,0832.4,5.01,0.00,22.6,21.8,00.0,31.5,24.4,07.6,0000.0,0005.55,0002.35,0001.38
2022-04-08 13:54:00,,0832.4,5.01,0.00,22.6,21.8,00.0,31.5,24.4,07.5,0000.0,0005.50,0002.32,0001.38
2022-04-08 13:55:00,,0832.3,5.01,0.00,22.6,21.8,00.0,31.5,24.3,07.7,0000.0,0005.54,0002.32,0001.38
2022-04-08 13:56:00,,0832.4,4.98,0.00,22.6,21.8,00.0,31.5,24.4,07.6,0000.0,0005.71,0002.35,0001.38
2022-04-08 13:57:00,,0832.4,5.00,0.00,22.6,21.8,00.0,31.5,24.4,07.8,0000.0,0005.62,0002.36,0001.38
2022-04-08 13:58:00,,0832.4,5.01,0.00,22.6,21.8,00.0,31.5,24.4,07.8,0000.0,0006.03,0002.39,0001.38
2022-04-08 13:59:00,,0832.4,4.99,0.00,22.6,21.8,00.0,31.5,24.4,07.8,0000.0,0006.23,0002.33,0001.38
